Torna al catalogo

THOR ABLESTAR DEB

AttivoLEO
NORAD 126·DEBRIS·🇺🇸 United States

Lanciato Jun 29, 1961 da Cape Canaveral Space Force Station

Loading…

Prossimi Passaggi (prossime 24 ore)

TLE

AggiornatoSource: Space-Track

Epoca: Sep 14, 2026, 07:06 UTC

1 00126U 61015L   26257.29608843  .00000851  00000-0  26369-3 0  9997
2 00126  66.7073 215.0642 0061237 196.1397 163.7761 14.45045596377477

Traccia THOR ABLESTAR DEB in tempo reale con AllMySat

Download on the App Store